THORAD AGENA D DEB

Satellite information

Favourite Embed

Satellite Type and Status

DEBRISIN ORBIT

Key statistics

Satellite THORAD AGENA D DEB at a glance.

Uptime

20282

Days in orbit

Revolutions

≈ 13.8

Per day

Orbit

SSO

Sun Synchronous Orbit

Inclination

100.2

Latest

Satellite identification and parameters

Extended collection of information and parameters for THORAD AGENA D DEB.

Object identification

Identified? True

Debris? True

Object name: THORAD AGENA D DEB

International designator: 1970-025TD

Object number (NORAD): 42547

Object ID (CCSDS): 42547

Country: UNITED STATES OF AMERICA (US)

Current information (Y/N): Y

RCS size: SMALL

Orbital parameters

Period: 104.031 minutes

Inclination: 100.1707 deg

SMA: 7327.155 km

Apoapsis: 960.108 km

Periapsis: 937.932 km

RAAN: 275.6491 deg

Eccentricy: 0.00151326

Argument of periapsis: 19.4291 deg

Mean anomaly: 340.7434 deg

Mean motion: 13.84202657 rev/day

Mean motion (dot): 0.00001701 rev/day2

B* drag term: 0.0015694413 1/REarth

Two-line elements (TLE)

Creation date: Oct. 15, 2025, 6:23 p.m.

Reference frame: TEME

Reference center: EARTH

Epoch: Oct. 15, 2025, 5:13 a.m. UTC

TLE line 0: 0 THORAD AGENA D DEB

TLE line 1: 1 42547U 70025TD 25288.21780062 .00001701 00000-0 15694-2 0 9993

TLE line 2: 2 42547 100.1707 275.6491 0015133 19.4291 340.7434 13.84202657598693

Live tracking on map

Real-time ground track for satellite THORAD AGENA D DEB.

In-orbit conjunctions

A list of the most updated potential collisions computed for object THORAD AGENA D DEB.

Target Orbit TCA Probability of collision Miss distance Type
COSMOS 883 LEO 2025-02-15 16:14:47 0.0004902637 214.0 (m) PAYLOAD
NADEZHDA 2 LEO 2024-12-01 07:48:44 0.0001501256 645.0 (m) PAYLOAD
COSMOS 1275 DEB LEO 2024-10-25 02:38:31 0.0001242487 90.0 (m) DEBRIS
METEOR 2-16 LEO 2024-10-07 02:43:00 0.001306033 66.0 (m) PAYLOAD
SL-8 R/B LEO 2024-06-10 13:25:17 0.0001018477 537.0 (m) ROCKET BODY

Associated space launch

Meteorological research and development satellite

THORAD AGENA D DEB was lifted into orbit during the mission ‘Thorad SLV-2G Agena D | Nimbus 4’, on board a Thorad SLV-2G Agena D space rocket.

The launch took place on April 8, 1970, 8:17 a.m. from Space Launch Complex 2E.

For more information about the launch, click the button.

Launch to space Thorad SLV-2G Agena D | Nimbus 4
Thorad SLV-2G Agena D | Nimbus 4

Agency: N/A

Status: Launch Successful

Launch date: April 8, 1970, 8:17 a.m. UTC

Rocket: Thorad SLV-2G Agena D

Launch pad: Space Launch Complex 2E

Location: Vandenberg SFB, CA, USA

...

Latest news about this satellite

There are no fresh news available about this satellite. Check back as we update our databases every day.


Newsletter sign-up

Weekly statistics, charts and insights to help you stay on top of the space industry.